Location: Altleiningen
(49.5078°N, 8.0741°E)
Time: 21:45:06
(UTC+00:00)

Cosmos 1500 - Pass Details

Date: 03 March 2021
Orbit: 499 x 517 km, 82.5° (Epoch: 13 April)

Event Time Altitude Azimuth Distance (km) Brightness Sun altitude
Rises 18:47:49 0° 193° (SSW) 2,581 6.8 -16.0°
Reaches altitude 10° 18:49:55 10° 196° (SSW) 1,702 5.9 -16.3°
Maximum altitude 18:53:38 71° 280° (W) 533 3.4 -16.9°
Drops below altitude 10° 18:57:23 10° 6° (N) 1,717 5.9 -17.5°
Sets 18:59:32 0° 9° (N) 2,608 6.8 -17.9°
